Location: Clifton Park
(41.4873°N, 81.8024°W)
Time: 22:49:28
(UTC+00:00)

STARLINK-50 - Pass Details

Date: 21 January 2020
Orbit: 528 x 531 km, 53.0° (Epoch: 18 February)

Event Time Altitude Azimuth Distance (km) Brightness Sun altitude
Exits shadow 11:12:03 38° 252° (WSW) 817 4.0 -17.9°
Maximum altitude 11:13:27 69° 324° (NW) 568 3.4 -17.6°
Drops below altitude 10° 11:17:29 10° 49° (NE) 1,780 6.7 -16.9°
Sets 11:19:43 0° 51° (NE) 2,673 7.7 -16.5°
